www.pogodaiklimat.ru

Погода и климат >> Архив погоды >> Индия >> Джаркханд >> Джамшедпур


ПОГОДА в Джамшедпуре

  • Прогноз погоды в Джамшедпуре
  • Монитор погоды в Джамшедпуре

АРХИВ ПОГОДЫ в Джамшедпуре

Время (UTC), дата Ветер
(напр.,м/с)
 
Видим.   Явления Облачность Т
(С)
Тd
(С)
f
(%)
Тe
(С)
Тes
(С)
Комфортность P
(гПа)
Po
(гПа)
Тmin
(С)
Tmax
(С)
R
(мм)
R24
(мм)
S
(см)
18 17.06 штиль 0 2000 м мгла 4/0
[Ac trans]
+34.2 +25.8 62 +50 +50 опасность
перегрева
999.2 983.5
21 17.06 штиль 0 2000 м мгла 4/0
[Ac trans]
+32.6 +25.3 66 +47 +47 опасность
перегрева
999.0 983.3
00 18.06 штиль 0 2000 м мгла 4/0
[Ac trans]
+30.6 +24.9 72 +44 +44 опасность
перегрева
999.5 983.7
03 18.06 штиль 0 2000 м мгла 3/0
[Ac trans]
+34.6 +25.4 59 +49 +61 опасность
перегрева
999.1 983.5 +30.2
06 18.06 С 2 4000 м мгла 3/0
[Ac trans]
+39.2 +20.5 34 +45 +63 опасность
перегрева
998.0 982.6
09 18.06 С 2 4000 м мгла 5/3 600 м
[Sc Ac trans]
+41.2 +20.8 31 +47 +55 опасность
перегрева
996.0 980.7
12 18.06 штиль 0 4000 м мгла 5/4 600 м
[Cu Sc Ac trans]
+40.4 +20.1 31 +46 +46 опасность
перегрева
994.5 979.2 +41.6
15 18.06 ЮЗ 3 2000 м мгла 6/3 600 м
[Sc Ac trans]
+34.0 +20.6 46 +41 +41 опасность
перегрева
997.8 982.2
18 18.06 З 2 2000 м мгла 8/4 600 м
[Sc Ac trans]
+32.4 +21.5 53 +41 +41 опасность
перегрева
999.7 983.9
21 18.06 З 2 2000 м мгла 6/4 600 м
[Sc Ac trans]
+31.0 +22.2 60 +40 +40 очень
душно
999.2 983.4
00 19.06 штиль 0 2000 м мгла 5/3 600 м
[Sc Ac trans]
+29.4 +23.0 68 +39 +39 очень
душно
997.8 981.9
03 19.06 З 2 2000 м мгла 4/0
[Ac trans]
+32.6 +22.7 56 +42 +52 опасность
перегрева
999.4 983.7 +28.6
06 19.06 ЮЗ 2 4000 м мгла 5/3 600 м
[Sc Ac trans]
+37.6 +23.0 43 +47 +61 опасность
перегрева
998.4 982.9
09 19.06 ЮЗ 2 4000 м мгла 6/4 600 м
[Cu Sc Ac trans]
+41.0 +19.7 29 +46 +53 опасность
перегрева
995.2 979.9
12 19.06 ЮВ 3 2000 м мгла 8/6 600 м
[Cb calv Ac trans]
+33.0 +21.9 52 +41 +42 опасность
перегрева
995.5 979.8 +41.5
15 19.06 СВ 1 2000 м мгла 8/4 600 м
[Sc Ac trans]
+31.4 +22.0 57 +40 +40 очень
душно
1000.0 984.2
18 19.06 штиль 0 2000 м мгла 8/4 600 м
[Sc Ac trans]
+30.2 +21.9 61 +39 +39 очень
душно
1001.4 985.5
21 19.06 штиль 0 2000 м мгла 8/4 600 м
[Sc Ac trans]
+30.0 +21.7 61 +38 +38 очень
душно
1000.9 985.0
00 20.06 штиль 0 2000 м мгла 5/3 600 м
[Sc Ac trans]
+29.6 +24.1 72 +41 +41 опасность
перегрева
999.7 983.8
03 20.06 З 1 2000 м мгла 5/3 600 м
[Sc Ac trans]
+32.8 +26.8 71 +50 +58 опасность
перегрева
1000.2 984.5 +28.8
06 20.06 В 2 4000 м мгла 5/3 600 м
[Sc Ac trans]
+37.6 +23.0 43 +47 +61 опасность
перегрева
999.6 984.1
09 20.06 ЮВ 4 4000 м мгла 6/3 600 м
[Sc Ac trans]
+39.2 +22.6 39 +48 +53 опасность
перегрева
996.5 981.1
12 20.06 ЮЗ 2 2000 м гроза, ливневой дождь 9/6 600 м
[Cu Sc As op]
+27.2 +25.5 90 +40 +40 очень
душно
986.6 970.8 +39.2 35
15 20.06 В 2 2000 м гроза, ливневой дождь 10/6 450 м
[Cb calv As op]
+26.4 +25.0 92 +38 +38 очень
душно
1000.7 984.6 41
18 20.06 штиль 0 2000 м в посл. час гроза {дождь} 9/5 450 м
[Sc Ac trans]
+26.2 +25.1 94 +38 +38 очень
душно
1002.3 986.2 48
21 20.06 штиль 0 2000 м мгла 9/5 450 м
[Sc Ac trans]
+26.0 +25.1 95 +37 +37 очень
душно
1001.9 985.8 48
00 21.06 штиль 0 2000 м туман 9/9 450 м
[]
+26.4 +25.0 92 +38 +38 очень
душно
1000.9 984.8 48
03 21.06 штиль 0 2000 м мгла 9/4 540 м
[Sc Ac trans]
+28.8 +25.4 82 +42 +47 опасность
перегрева
1002.1 986.1 +25.0 48
06 21.06 З 2 4000 м мгла 8/5 600 м
[Sc Ac trans]
+31.4 +25.2 70 +45 +53 опасность
перегрева
1000.5 984.7
09 21.06 штиль 0 2000 м мгла {дождь} 9/8 540 м
[Sc diur, vesp Ac trans]
+31.0 +27.7 83 +51 +53 опасность
перегрева
997.8 982.0 5
12 21.06 В 2 2000 м гроза, ливневой дождь 9/8 540 м
[Cb cap Ac trans]
+27.0 +25.6 92 +40 +40 очень
душно
998.6 982.6 +33.6 22
15 21.06 штиль 0 2000 м мгла {гроза, дождь} 8/5 600 м
[Sc Ac trans]
+26.6 +25.7 95 +39 +39 очень
душно
999.9 983.8 27
18 21.06 штиль 0 2000 м мгла {дождь} 8/5 600 м
[Sc Ac trans]
+26.4 +25.5 95 +39 +39 очень
душно
1001.2 985.1 28
21 21.06 штиль 0 2000 м мгла 8/5 600 м
[Sc Ac trans]
+26.4 +25.3 94 +38 +38 очень
душно
1000.5 984.4 28
00 22.06 штиль 0 2000 м мгла 8/5 600 м
[Sc Ac trans]
+26.2 +24.8 92 +37 +37 очень
душно
999.8 983.7 28
03 22.06 В 5 2000 м мгла {дождь} 8/6 600 м
[Sc diur, vesp Ac trans]
+29.0 +25.6 82 +43 +44 опасность
перегрева
1000.4 984.5 +25.4 31
06 22.06 ЮВ 4 4000 м мгла 9/6 450 м
[Sc diur, vesp Ac trans]
+30.2 +24.8 73 +43 +46 опасность
перегрева
999.9 984.0
09 22.06 В 1 4000 м мгла 8/5 540 м
[Sc diur, vesp Ac trans]
+31.0 +26.8 78 +48 +53 опасность
перегрева
998.7 982.9 5
12 22.06 Ю 2 4000 м мгла 8/4 600 м
[Sc diur, vesp Ac trans]
+32.6 +24.2 61 +45 +45 опасность
перегрева
998.1 982.4 +38.2 5
15 22.06 ЮВ 3 2000 м мгла 4/4 600 м
[Sc]
+29.0 +26.2 85 +44 +44 опасность
перегрева
1000.4 984.5 5
18 22.06 ЮВ 3 2000 м мгла 8/4 600 м
[Sc Ac trans]
+28.0 +25.7 87 +41 +41 опасность
перегрева
1001.2 985.2 5
21 22.06 ЮВ 2 2000 м мгла 9/5 600 м
[Sc Ac trans]
+27.4 +25.4 89 +40 +40 очень
душно
1000.5 984.5 5
00 23.06 В 2 2000 м мгла 9/5 600 м
[Sc Ac trans]
+27.0 +25.6 92 +40 +40 очень
душно
1001.2 985.1 5
03 23.06 ЮВ 1 2000 м мгла 8/4 540 м
[Sc Ac trans]
+29.8 +25.0 75 +43 +47 опасность
перегрева
1002.8 986.9 +26.6 5
06 23.06 В 1 4000 м мгла 9/5 540 м
[Sc diur, vesp Ac trans]
+32.0 +24.9 66 +45 +52 опасность
перегрева
1002.0 986.2
09 23.06 В 2 4000 м мгла 8/5 600 м
[Sc diur, vesp Ac trans]
+31.6 +25.7 71 +47 +51 опасность
перегрева
1001.0 985.2
12 23.06 В 2 4000 м мгла 8/6 600 м
[Sc diur, vesp Ac trans]
+32.0 +25.2 67 +46 +46 опасность
перегрева
1000.1 984.3 +32.6
15 23.06 В 3 2000 м мгла {дождь} 8/4 600 м
[Sc Ac trans]
+29.4 +26.0 82 +44 +44 опасность
перегрева
1001.7 985.8 0.0
18 23.06 В 2 2000 м мгла 8/4 600 м
[Sc Ac trans]
+29.0 +25.6 82 +43 +43 опасность
перегрева
1002.6 986.6 0.0
21 23.06 В 2 2000 м мгла 8/4 600 м
[Sc Ac trans]
+28.4 +25.3 83 +41 +41 опасность
перегрева
1002.0 986.0 0.0
00 24.06 штиль 0 2000 м мгла 9/4 600 м
[Sc Ac trans]
+27.8 +25.5 87 +41 +41 опасность
перегрева
1002.6 986.6 0.0
03 24.06 З 2 2000 м мгла 8/4 600 м
[Sc Ac trans]
+31.0 +25.4 72 +45 +49 опасность
перегрева
1004.6 988.7 +26.8 0.0
06 24.06 ЮЗ 3 4000 м мгла 8/4 600 м
[Sc Ac trans]
+34.2 +24.3 56 +46 +53 опасность
перегрева
1004.1 988.4
09 24.06 ЮЗ 3 4000 м мгла 8/5 600 м
[Sc diur, vesp Ac trans]
+36.4 +23.9 49 +48 +51 опасность
перегрева
1001.2 985.6
12 24.06 ЮЗ 3 4000 м мгла 6/6 600 м
[Sc diur, vesp]
+35.4 +23.7 51 +47 +47 опасность
перегрева
1000.3 984.7 +36.6
15 24.06 ЮВ 3 2000 м мгла 5/5 600 м
[Sc]
+33.0 +25.1 63 +47 +47 опасность
перегрева
1001.7 985.9

 

Местоположение метеостанции Джамшедпур (Джаркханд, Индия): широта 22.82 долгота 86.18 высота над уровнем моря 142 м.

В архиве по умолчанию представлена погода в Джамшедпуре за последнюю неделю. Архивные данные за месяц целиком и за предыдущие месяцы, начиная с января 2011 года, Вы можете получить, выбрав интересующий диапазон дат из раскрывающегося списка и нажав кнопку "Ввод!".


*Определитесь, кто Вы:
робот инопланетянин человек

Внимание! Время в таблицах - всемирное. Для получения местного времени необходимо прибавить поправку, которая равна 5.5 ч.

Смотрите также архив погоды в соседних городах и на ближайших метеорологических станциях:

Погода в Чайбасе (Джаркханд, Индия) (48 км)
Погода в Пурулии (Западная Бенгалия, Индия) (62 км)
Погода в Банкуре (Западная Бенгалия, Индия) (101 км)
Погода в Ранчи (Джаркханд, Индия) (104 км)
Погода в Барипаде (Орисса, Индия) (116 км)
Погода в Миднапуре (Западная Бенгалия, Индия) (125 км)
Погода в Асансоле (Западная Бенгалия, Индия) (126 км)
Погода в Панагаре (Западная Бенгалия, Индия) (147 км)
Погода в Кендуджхаре (Орисса, Индия) (150 км)
Погода в Баласоре (Орисса, Индия) (164 км)

Пояснения к столбцам:

Ветер - указаны скорость ветра в м/с - средняя за 10 мин, порывы в срок и между сроками (в фигурных скобках) и направление, откуда дует ветер: С - северный, СВ - северо-восточный, В - восточный, ЮВ - юго-восточный, Ю - южный, ЮЗ - юго-западный, З - западный, СЗ - северо-западный.
Видимость - горизонтальная дальность видимости в метрах или километрах. При видимости от 1 до 10 км при отсутствии осадков обычно наблюдается дымка, при ухудшении видимости до 1 км и менее - туман. В сухую погоду видимость может ухудшаться дымом, пылью или мглою.
Явления - указаны атмосферные явления, наблюдавшиеся в срок или в последний час перед сроком; фигурными скобками обозначены явления, наблюдавшиеся между сроками (за 1-3 часа до срока); квадратными скобками обозначены град или гололедные отложения с указанием их диаметра в мм.
Облачность - указаны через наклонную черту общая и нижняя облачность в баллах и высота нижней границы облаков в метрах; квадратными скобками обозначены формы облаков: Ci - перистые, Cs - перисто-слоистые, Cc - перисто-кучевые, Ac - высококучевые, As - высокослоистые, Sc - слоисто-кучевые, Ns - слоисто-дождевые, Cu - кучевые, Cb - кучево-дождевые. Подробнее классификацию облаков см. в Атласе облаков (PDF).
T - Температура воздуха - температура, измеренная на высоте 2 м над землей.
Td - Температура точки росы - температура, при понижении до которой содержащийся в воздухе водяной пар достигнет насыщения.
f - Относительная влажность воздуха - влажноcть воздуха, измеренная на высоте 2 м над землей.
Te - Эффективная температура - температура, которую ощущает одетый по сезону человек в тени. Характеристика душности погоды. При расчете учитывается влияние влажности воздуха и скорости ветра на теплоощущения человека.
Tes - Эффективная температура на солнце - температура, которую ощущает человек, с поправкой на солнечный нагрев. Характеристика знойности погоды. Зависит от высоты солнца над горизонтом, облачности и скорости ветра. Ночью, в пасмурную погоду, а также при ветре 12 м/с и более поправка равна нулю.
P - Атмосферное давление - приведенное к уровню моря атмосферное давление.
Po - Атмосферное давление - измеренное на уровне метеостанции атмосферное давление.
Tmin - Минимальная температура - минимум температуры воздуха на высоте 2 м над землей.
Tmax - Максимальная температура - максимум температуры воздуха на высоте 2 м над землей.
R - Количество осадков - Количество выпавших осадков за период времени, мм. При наведении курсора мыши на число - период времени, за который выпало указанное количество осадков.
R24 - Количество осадков - Количество выпавших осадков за 24 часа, мм.
S - Снежный покров - Высота снежного покрова, см. При наведении курсора мыши на число - состояние снежного покрова и степень покрытия местности в баллах.